Date String (YYYY-MM-DD hh:mm:ss) UTC,Instrument flags,Ambient pressure (hPa),Sample flow (lpm),Bypass flow (lpm),Sample temperature (°C),Ambient temperature (°C),ASC tube jacket temperature (°C),LED temperature (°C),Box temperature (°C),Sample RH (%),Span deviation,Mass concentration (μg/m³),Mass concentration (μg/m³),Mass concentration (μg/m³)
DateTimeUTC,F1_M11,P_M11,Q1_M11,Q2_M11,T1_M11,T2_M11,T3_M11,T4_M11,T5_M11,U1_M11,ZSPAN_M11,X0_M11,X2_M11,X1_M11
2022-01-11 14:00:00,,0831.5,5.02,0.00,22.6,21.8,00.0,31.6,24.3,05.6,0000.0,0000.26,0000.20,0000.17
2022-01-11 14:01:00,,0831.6,4.99,0.00,22.5,21.8,00.0,31.6,24.3,05.7,0000.0,0000.27,0000.20,0000.17
2022-01-11 14:02:00,,0831.5,5.00,0.00,22.5,21.8,00.0,31.6,24.2,05.2,0000.0,0000.27,0000.20,0000.17
2022-01-11 14:03:00,,0831.5,5.00,0.00,22.5,21.7,00.0,31.6,24.2,05.0,0000.0,0000.27,0000.21,0000.17
2022-01-11 14:04:00,,0831.5,5.02,0.00,22.5,21.7,00.0,31.6,24.2,05.3,0000.0,0000.28,0000.21,0000.17
2022-01-11 14:05:00,,0831.5,4.99,0.00,22.5,21.7,00.0,31.6,24.3,05.1,0000.0,0000.26,0000.19,0000.16
2022-01-11 14:06:00,,0831.5,5.01,0.00,22.5,21.7,00.0,31.6,24.2,05.2,0000.0,0000.24,0000.18,0000.16
2022-01-11 14:07:00,,0831.5,4.99,0.00,22.5,21.7,00.0,31.5,24.2,04.7,0000.0,0000.23,0000.17,0000.15
2022-01-11 14:08:00,,0831.5,5.01,0.00,22.5,21.7,00.0,31.6,24.2,05.0,0000.0,0000.22,0000.16,0000.14
2022-01-11 14:09:00,,0831.5,4.99,0.00,22.5,21.6,00.0,31.5,24.1,05.1,0000.0,0000.23,0000.17,0000.14
2022-01-11 14:10:00,,0831.5,5.02,0.00,22.5,21.7,00.0,31.5,24.2,04.9,0000.0,0000.23,0000.17,0000.13
2022-01-11 14:11:00,,0831.4,4.99,0.00,22.5,21.7,00.0,31.5,24.1,04.7,0000.0,0000.23,0000.16,0000.12
2022-01-11 14:12:00,,0831.5,5.01,0.00,22.5,21.6,00.0,31.5,24.1,05.9,0000.0,0000.36,0000.16,0000.12
2022-01-11 14:13:00,,0831.4,5.00,0.00,22.5,21.6,00.0,31.5,24.2,06.3,0000.0,0001.61,0000.24,0000.12
2022-01-11 14:14:00,,0831.5,5.00,0.00,22.5,21.6,00.0,31.5,24.1,06.2,0000.0,0002.20,0000.37,0000.12
2022-01-11 14:15:00,,0831.4,4.99,0.00,22.5,21.6,00.0,31.5,24.2,05.9,0000.0,0002.54,0000.41,0000.12
2022-01-11 14:16:00,,0831.5,4.99,0.00,22.4,21.6,00.0,31.5,24.1,05.8,0000.0,0003.15,0000.42,0000.12
2022-01-11 14:17:00,,0831.5,5.01,0.00,22.4,21.6,00.0,31.5,24.1,05.7,0000.0,0003.16,0000.43,0000.12
2022-01-11 14:18:00,,0831.5,5.01,0.00,22.4,21.6,00.0,31.5,24.1,05.6,0000.0,0003.17,0000.43,0000.13
2022-01-11 14:19:00,,0831.5,5.00,0.00,22.4,21.6,00.0,31.5,24.1,05.3,0000.0,0003.17,0000.44,0000.13
2022-01-11 14:20:00,,0831.4,5.00,0.00,22.4,21.6,00.0,31.5,24.1,04.9,0000.0,0003.15,0000.42,0000.13
2022-01-11 14:21:00,,0831.5,5.00,0.00,22.4,21.8,00.0,31.5,24.2,04.3,0000.0,0003.14,0000.41,0000.13
2022-01-11 14:22:00,,0831.5,5.00,0.00,22.5,22.4,00.0,31.6,24.4,04.3,0000.0,0003.15,0000.42,0000.13
2022-01-11 14:23:00,,0831.5,5.01,0.00,22.7,23.1,00.0,31.6,24.6,04.7,0000.0,0003.00,0000.41,0000.13
2022-01-11 14:24:00,,0831.4,4.99,0.00,22.8,23.1,00.0,31.6,24.8,04.6,0000.0,0001.74,0000.32,0000.12
2022-01-11 14:25:00,,0831.4,5.00,0.00,22.8,23.0,00.0,31.6,24.7,04.8,0000.0,0001.14,0000.19,0000.11
2022-01-11 14:26:00,,0831.4,4.99,0.00,22.8,22.8,00.0,31.7,24.7,05.1,0000.0,0000.86,0000.14,0000.11
2022-01-11 14:27:00,,0831.4,4.99,0.00,22.8,22.7,00.0,31.7,24.6,05.2,0000.0,0000.17,0000.12,0000.11
2022-01-11 14:28:00,,0831.3,4.99,0.00,22.8,22.5,00.0,31.7,24.6,04.9,0000.0,0000.15,0000.11,0000.11
2022-01-11 14:29:00,,0831.3,5.01,0.00,22.8,22.4,00.0,31.7,24.5,05.0,0000.0,0000.14,0000.11,0000.10
2022-01-11 14:30:00,,0831.2,4.99,0.00,22.8,22.3,00.0,31.7,24.5,04.6,0000.0,0000.14,0000.11,0000.10
2022-01-11 14:31:00,,0831.2,5.01,0.00,22.7,22.2,00.0,31.7,24.5,04.4,0000.0,0000.14,0000.11,0000.10
2022-01-11 14:32:00,,0831.2,4.99,0.00,22.7,22.1,00.0,31.7,24.4,05.0,0000.0,0000.17,0000.12,0000.10
2022-01-11 14:33:00,,0831.1,5.00,0.00,22.7,22.1,00.0,31.7,24.4,04.7,0000.0,0000.18,0000.12,0000.10
2022-01-11 14:34:00,,0831.1,5.00,0.00,22.7,22.0,00.0,31.7,24.4,04.1,0000.0,0000.16,0000.12,0000.10
2022-01-11 14:35:00,,0831.1,4.99,0.00,22.6,21.9,00.0,31.7,24.3,04.2,0000.0,0000.16,0000.12,0000.10
2022-01-11 14:36:00,,0831.1,5.00,0.00,22.6,21.9,00.0,31.7,24.2,04.7,0000.0,0000.16,0000.12,0000.10
2022-01-11 14:37:00,,0831.0,5.00,0.00,22.6,21.8,00.0,31.6,24.2,04.6,0000.0,0000.16,0000.12,0000.10
2022-01-11 14:38:00,,0831.0,5.01,0.00,22.6,21.8,00.0,31.6,24.2,04.6,0000.0,0000.16,0000.12,0000.10
2022-01-11 14:39:00,,0831.0,4.99,0.00,22.6,21.8,00.0,31.6,24.2,05.1,0000.0,0000.18,0000.13,0000.11
2022-01-11 14:40:00,,0831.0,5.02,0.00,22.6,21.8,00.0,31.6,24.2,05.2,0000.0,0000.19,0000.13,0000.11
2022-01-11 14:41:00,,0831.0,4.98,0.00,22.6,21.8,00.0,31.6,24.2,05.5,0000.0,0000.19,0000.13,0000.11
2022-01-11 14:42:00,,0830.9,5.02,0.00,22.6,21.8,00.0,31.6,24.2,05.4,0000.0,0000.20,0000.13,0000.11
2022-01-11 14:43:00,,0830.9,4.99,0.00,22.6,21.8,00.0,31.6,24.2,05.4,0000.0,0000.20,0000.14,0000.12
2022-01-11 14:44:00,,0831.0,5.01,0.00,22.5,21.8,00.0,31.6,24.2,05.5,0000.0,0000.20,0000.14,0000.12
2022-01-11 14:45:00,,0831.1,5.00,0.00,22.5,21.8,00.0,31.6,24.2,05.6,0000.0,0000.20,0000.14,0000.12
2022-01-11 14:46:00,,0831.1,5.01,0.00,22.5,21.8,00.0,31.6,24.2,05.3,0000.0,0000.20,0000.14,0000.12
2022-01-11 14:47:00,,0831.2,4.99,0.00,22.5,21.8,00.0,31.6,24.2,05.9,0000.0,0000.45,0000.16,0000.12
2022-01-11 14:48:00,,0831.2,4.99,0.00,22.5,21.8,00.0,31.6,24.2,06.2,0000.0,0000.48,0000.17,0000.11
2022-01-11 14:49:00,,0831.2,5.01,0.00,22.5,21.8,00.0,31.6,24.2,06.2,0000.0,0000.63,0000.17,0000.11
2022-01-11 14:50:00,,0831.3,5.00,0.00,22.5,21.8,00.0,31.6,24.2,06.1,0000.0,0001.20,0000.17,0000.11
2022-01-11 14:51:00,,0831.4,5.00,0.00,22.4,21.7,00.0,31.6,24.2,06.3,0000.0,0001.19,0000.17,0000.11
2022-01-11 14:52:00,,0831.2,4.99,0.00,22.4,21.7,00.0,31.6,24.2,06.1,0000.0,0001.24,0000.20,0000.12
2022-01-11 14:53:00,,0831.1,5.02,0.00,22.4,21.7,00.0,31.6,24.2,04.1,0000.0,0001.43,0000.21,0000.12
2022-01-11 14:54:00,,0831.2,5.00,0.00,22.4,21.7,00.0,31.5,24.1,04.1,0000.0,0001.47,0000.19,0000.11
2022-01-11 14:55:00,,0831.3,4.99,0.00,22.4,21.7,00.0,31.5,24.1,04.1,0000.0,0001.47,0000.19,0000.11
2022-01-11 14:56:00,,0831.4,5.00,0.00,22.4,21.6,00.0,31.5,24.0,05.1,0000.0,0001.47,0000.20,0000.11
2022-01-11 14:57:00,,0831.4,5.01,0.00,22.4,21.7,00.0,31.5,24.1,04.6,0000.0,0001.47,0000.19,0000.11
2022-01-11 14:58:00,,0831.3,4.99,0.00,22.4,21.6,00.0,31.5,24.1,03.3,0000.0,0001.21,0000.17,0000.11
2022-01-11 14:59:00,,0831.5,5.01,0.00,22.4,21.7,00.0,31.5,24.0,03.6,0000.0,0001.21,0000.17,0000.12
